South Bend, IN

6:42 PM EDT on October 16, 2017 (GMT -0400)
South Bend Regional

Weather History for KSBN - January, 2014

Change the Weather History Date:

Tuesday, January 28, 2014

  Actual Average Record
Temperature  
Mean Temperature -6 °F 24 °F  
Max Temperature 2 °F 31 °F 58 °F (2002)
Min Temperature -14 °F 18 °F -16 °F (1963)
Degree Days  
Heating Degree Days 71 41  
Month to date heating degree days 1268 1140  
Since 1 July heating degree days 3754 3531  
Cooling Degree Days 0 0  
Month to date cooling degree days 0 0  
Year to date cooling degree days 0 0  
Moisture  
Dew Point -15 °F    
Average Humidity 65    
Maximum Humidity 79    
Minimum Humidity 51    
Precipitation  
Precipitation 0.00 in 0.07 in 0.82 in (1969)
Month to date precipitation 3.05 2.10  
Year to date precipitation 3.05 2.10  
Snow  
Snow 0.00 in 0.70 in 3.80 in (1977)
Month to date snowfall 18.6  
Since 1 July snowfall 41.1  
Snow Depth -    
Sea Level Pressure  
Sea Level Pressure 30.40 in    
Wind  
Wind Speed 10 mph (SW)    
Max Wind Speed 16 mph    
Max Gust Speed 21 mph    
Visibility 10 miles    
Events      
T = Trace of Precipitation, MM = Missing Value Source: NWS Daily Summary

Daily Weather History Graph

Daily Weather History Graph

Search for Another Location

Airport or City:

Trip Planner

Search our weather history database for the weather conditions in past years. The results will help you decide how hot, cold, wet, or windy it might be!

Date:

Astronomy

Jan. 28, 2014 Rise Set
Actual Time 8:01 AM EST 5:55 PM EST
Civil Twilight 7:31 AM EST 6:25 PM EST
Nautical Twilight 6:57 AM EST 6:59 PM EST
Astronomical Twilight 6:25 AM EST 7:31 PM EST
Moon 5:42 AM EST (1/28) 3:44 PM EST (1/28)
Length of Visible Light 10h 54m
Length of Day
9h 54m
Waning Crescent, 7% of the Moon is Illuminated
Jan 28
Waning Crescent
Jan 30
New
Feb 6
First Quarter
Feb 14
Full
Feb 22
Last Quarter

Hourly Weather History & Observations

Time (EST) Temp. Windchill Dew Point Humidity Pressure Visibility Wind Dir Wind Speed Gust Speed Precip Events Conditions
12:54 AM -9.0 °F -25.2 °F -15.0 °F 75% 30.44 in 10.0 mi SW 8.1 mph - N/A   Mostly Cloudy
1:03 AM -9.4 °F -25.6 °F -16.6 °F 71% 30.36 in 10.0 mi WSW 8.1 mph - N/A   Scattered Clouds
1:54 AM -9.9 °F -27.5 °F -17.0 °F 71% 30.43 in 10.0 mi SW 9.2 mph - N/A   Clear
2:54 AM -9.9 °F -32.1 °F -18.0 °F 68% 30.45 in 10.0 mi SW 15.0 mph - N/A   Partly Cloudy
3:08 AM -9.4 °F -28.9 °F -18.4 °F 65% 30.37 in 10.0 mi SW 11.5 mph - N/A   Mostly Cloudy
3:54 AM -11.0 °F -30.9 °F -18.0 °F 71% 30.45 in 10.0 mi SW 11.5 mph - N/A   Mostly Cloudy
4:01 AM -11.2 °F -31.1 °F -18.4 °F 70% 30.37 in 10.0 mi SW 11.5 mph - N/A   Scattered Clouds
4:35 AM -11.2 °F -32.1 °F -18.4 °F 70% 30.37 in 10.0 mi SW 12.7 mph - N/A   Mostly Cloudy
4:45 AM -11.2 °F -32.1 °F -18.4 °F 70% 30.36 in 10.0 mi SW 12.7 mph - N/A   Scattered Clouds
4:54 AM -11.0 °F -29.9 °F -18.9 °F 68% 30.44 in 6.0 mi SW 10.4 mph - N/A   Haze
5:54 AM -11.9 °F -29.9 °F -18.9 °F 71% 30.45 in 9.0 mi SW 9.2 mph - N/A   Clear
6:54 AM -13.0 °F -28.6 °F -18.9 °F 75% 30.46 in 10.0 mi SW 6.9 mph - N/A   Clear
7:54 AM -13.0 °F -30.0 °F -20.0 °F 71% 30.47 in 10.0 mi SSW 8.1 mph - N/A   Clear
8:54 AM -13.0 °F -28.6 °F -18.9 °F 75% 30.47 in 10.0 mi SW 6.9 mph - N/A   Clear
9:54 AM -9.9 °F -24.9 °F -18.0 °F 68% 30.48 in 10.0 mi SW 6.9 mph - N/A   Clear
10:27 AM -7.6 °F -23.4 °F -16.6 °F 65% 30.39 in 2.0 mi SW 8.1 mph - N/A   Haze
10:36 AM -7.6 °F -24.6 °F -14.8 °F 71% 30.40 in 10.0 mi WSW 9.2 mph - N/A   Clear
10:54 AM -6.0 °F -21.5 °F -15.0 °F 65% 30.47 in 10.0 mi WSW 8.1 mph - N/A   Clear
11:54 AM -2.9 °F -19.8 °F -15.0 °F 56% 30.45 in 10.0 mi WSW 10.4 mph - N/A   Clear
12:54 PM -0.0 °F -16.3 °F -14.1 °F 52% 30.43 in 10.0 mi WSW 10.4 mph - N/A   Clear
1:54 PM 1.0 °F -16.6 °F -11.9 °F 55% 30.41 in 10.0 mi WSW 12.7 mph - N/A   Clear
2:54 PM 1.0 °F -15.8 °F -11.9 °F 55% 30.39 in 10.0 mi WSW 11.5 mph - N/A   Clear
3:54 PM 1.9 °F -15.5 °F -11.0 °F 55% 30.37 in 10.0 mi SSW 12.7 mph - N/A   Clear
4:54 PM 1.0 °F -15.8 °F -11.0 °F 57% 30.36 in 10.0 mi SSW 11.5 mph - N/A   Clear
5:54 PM -0.0 °F -17.1 °F -11.0 °F 60% 30.36 in 10.0 mi SW 11.5 mph - N/A   Clear
6:54 PM -0.9 °F -19.1 °F -11.0 °F 62% 30.35 in 10.0 mi SW 12.7 mph - N/A   Clear
7:54 PM -2.0 °F -18.7 °F -11.0 °F 66% 30.35 in 10.0 mi SW 10.4 mph - N/A   Clear
8:54 PM -2.0 °F -18.7 °F -11.0 °F 66% 30.33 in 10.0 mi SW 10.4 mph - N/A   Clear
9:54 PM -2.9 °F -19.8 °F -11.0 °F 68% 30.32 in 10.0 mi SW 10.4 mph - N/A   Clear
10:54 PM -4.0 °F -20.2 °F -11.0 °F 72% 30.32 in 10.0 mi SW 9.2 mph - N/A   Clear
11:54 PM -4.0 °F -19.0 °F -11.0 °F 72% 30.30 in 10.0 mi SW 8.1 mph - N/A   Clear